Home > Weather > Napa > Past weeks

Flag for U.S.A. Weather for the Past 2 Weeks in Napa, California, U.S.A.

Now
48 °F

Clear.


Feels Like: 46 °F
Forecast: 46 / 71 °F
Wind: 5 mph from North

Location: Napa County Airport

Current Time: Feb 9, 2016 at 6:20:22 AM

Latest Report: Feb 9, 2016 at 4:54 AM


Visibility: 10 mi

Pressure: 30.16 "Hg

Humidity: 80%

Dew point: 42 °F

Location of NapaLocation

Historic Weather in Napa — Graph

°F

Napa Temperature Yesterday

Maximum temperature yesterday: 73 °F (at 2:54 PM)
Minimum temperature yesterday: 51 °F (at 5:54 AM)
Average temperature yesterday: 60 °F

High & Low Weather Summary for the Past Weeks

 TemperatureHumidityPressure
High122 °F (Jan 31, 4:54 PM)100% (Jan 26, 1:54 AM)30.45 "Hg (Jan 26, 1:54 AM)
Low35 °F (Feb 6, 6:54 AM)4% (Jan 31, 4:54 PM)29.72 "Hg (Jan 31, 2:54 PM)
Average53 °F77%30.21 "Hg
* Reported Jan 25 4:54 AM — Feb 9 4:54 AM, Napa, Weather by CustomWeather, © 2016

Note: Actual official high and low records may vary slightly from our data, if they occured in-between our weather recording intervals... More about our weather records

Advertising

Napa Weather History for the Previous 24 Hours

 ConditionsComfort  
Time TempWeatherWind HumidityBarometerVisibility
4:54 AM
Tue, Feb 9
48 °FClear.5 mph80%30.16 "Hg10 mi
3:54 AM48 °FClear.7 mph86%30.17 "Hg10 mi
2:54 AM49 °FClear.No wind80%30.16 "Hg10 mi
1:54 AM48 °FClear.No wind86%30.16 "Hg10 mi
12:54 AM51 °FClear.3 mph80%30.16 "Hg10 mi
11:54 PM
Mon, Feb 8
53 °FClear.3 mph80%30.16 "Hg10 mi
10:54 PM54 °FClear.5 mph80%30.16 "Hg10 mi
9:54 PM54 °FClear.5 mph80%30.16 "Hg10 mi
8:54 PM54 °FClear.No wind80%30.16 "Hg10 mi
7:54 PM58 °FClear.5 mph70%30.15 "Hg10 mi
6:54 PM63 °FClear.10 mph52%30.14 "Hg10 mi
5:54 PM61 °FClear.5 mph60%30.14 "Hg10 mi
4:54 PM70 °FSunny.10 mph46%30.13 "Hg10 mi
3:54 PM72 °FSunny.13 mph46%30.14 "Hg10 mi
2:54 PM73 °FSunny.10 mph44%30.13 "Hg10 mi
1:54 PM72 °FSunny.12 mph46%30.15 "Hg10 mi
12:54 PM71 °FSunny.13 mph47%30.17 "Hg10 mi
11:54 AM67 °FSunny.16 mph51%30.21 "Hg10 mi
10:54 AM69 °FSunny.7 mph44%30.22 "Hg10 mi
9:54 AM64 °FSunny.6 mph52%30.22 "Hg10 mi
8:54 AM58 °FSunny.9 mph62%30.22 "Hg10 mi
7:54 AM54 °FSunny.8 mph69%30.21 "Hg10 mi
6:54 AM51 °FClear.12 mph74%30.19 "Hg10 mi
Weather by CustomWeather, © 2016

See weather overviewHow to use our weather pages